Regional Weather Roundup
Issued by NWS

Home | Current Version | Previous Version | Graphics & Text | Print | Product List | Glossary On
Versions: 1 2 3 4 5 6 7 8 9 10 11 12 13 14 15 16 17 18 19 20 21 22 23 24 25 26 27 28 29 30 31 32 33 34 35 36 37 38 39 40 41 42 43 44 45 46 47 48 49 50
270
ASUS45 KTFX 252010
RWRMT
MONTANA REGIONAL WEATHER ROUNDUP
NATIONAL WEATHER SERVICE GREAT FALLS MT
200 PM MDT TUE APR 25 2017

NOTE: "FAIR" INDICATES FEW OR NO CLOUDS BELOW 12000 FEET WITH NO
SIGNIFICANT WEATHER AND/OR OBSTRUCTIONS TO VISIBILITY.

MTZ001>007-043-252100-
WEST OF THE DIVIDE

CITY           SKY/WX    TMP DP  RH WIND       PRES   REMARKS
KALISPELL      LGT RAIN  45  42  89 E7        29.80R
MISSOULA       CLOUDY    50  37  61 N9        29.84F
BUTTE          PTSUNNY   47  24  40 W8        29.80F
MULLAN PASS    SNOW      32  32 100 N5        29.84R VSB 1/4
ANACONDA         N/A     48  21  34 W18       29.80F
DEER LODGE       N/A     46  28  49 W9        29.83S
EUREKA           N/A     54  27  35 SE9       29.78S
HAMILTON         N/A     50  30  46 W5        29.83S
$$

MTZ008-052>055-252100-
SOUTHWEST MONTANA

CITY           SKY/WX    TMP DP  RH WIND       PRES   REMARKS
BOZEMAN        CLOUDY    48  36  63 NW8       29.80S
DILLON         PTSUNNY   48  32  53 S9        29.79F
W YELLOWSTONE  MIX PCPN  36  32  87 NW7       29.80R WCI  30
ENNIS          CLOUDY    45  34  65 NW16G23   29.84S
THREE FORKS      N/A     45  45 100 SW5       29.82F
$$

MTZ009-010-012-014-046-048-049-054-252100-
EAST SLOPES AND CENTRAL MONTANA

CITY           SKY/WX    TMP DP  RH WIND       PRES   REMARKS
CUT BANK       LGT RAIN  40  37  89 NE10      29.79S FOG
GREAT FALLS    PTSUNNY   52  37  56 E8        29.77F
MALMSTROM AFB  LGT RAIN  48  39  71 NE10      29.78F
HELENA         MOSUNNY   58  27  30 W16G24    29.75F
AUGUSTA          N/A     45  37  71 E5        29.75F
BOWMANS CRNR     N/A     47  36  65 N10       29.74F
CHOTEAU          N/A     45  41  87 SE10      29.78F
FAIRFIELD      FLURRIES  40  36  87 W10       29.79R
POWER            N/A     45  39  79 E5        29.77F
RAYNESFORD       N/A     48  38  68 E7        29.77F
ULM            PTSUNNY   50  36  58 N6        29.76F
$$

MTZ011-013-016-021-045-047-050-051-252100-
NORTH CENTRAL MONTANA

CITY           SKY/WX    TMP DP  RH WIND       PRES   REMARKS
HAVRE          CLOUDY    46  32  58 E17       29.84F
LEWISTOWN      CLOUDY    41  33  73 E13       29.82R
CHINOOK          N/A     43  28  56 E20G25    29.87F
DENTON         PTSUNNY   45  36  70 MISG      29.78F
FORT BENTON      N/A     48  37  66 MISG      29.82F
GEYSER         PTSUNNY   47  39  74 E10       29.78F
GRASS RANGE    CLOUDY    35  34  98 E12       29.83S WCI  26
JUDITH GAP     CLOUDY    33  33  96 S13G20    29.82S WCI  24
STANFORD       CLOUDY    44  38  79 NE7       29.79F
WINIFRED       PTSUNNY   42  32  68 E18       29.82F
$$

MTZ017>020-022>027-061-062-252100-
NORTHEAST MONTANA

CITY           SKY/WX    TMP DP  RH WIND       PRES   REMARKS
GLASGOW        CLOUDY    38  24  57 E12G17    29.95F WCI  30
JORDAN           N/A     37  26  64 SE10      29.93S WCI  30
SIDNEY         CLOUDY    37  24  59 E13       29.96S WCI  29
WOLF POINT     CLOUDY    42  24  49 E9G20     29.96F
PLENTYWOOD       N/A     37  21  52 NE10      29.97S WCI  30
POPLAR           N/A     39  21  48 NE12G20   29.96S WCI  32
$$

MTZ028>42-056>058-252100-
SOUTHCENTRAL AND SOUTHEAST MONTANA

CITY           SKY/WX    TMP DP  RH WIND       PRES   REMARKS
BAKER          CLOUDY    29  24  82 NE13      29.89S WCI  19
BILLINGS       CLOUDY    34  29  82 CALM      29.88S
LIVINGSTON     CLOUDY    46  36  68 NE8       29.79F
MILES CITY     CLOUDY    34  25  69 NE9       29.92R WCI  27
BIG TIMBER     CLOUDY    41  36  81 E8G15     29.85S
LAUREL           N/A     34  24  67 E5        29.88F
ROUNDUP          N/A     36  29  76 NE7       29.81S WCI  30
$$

REGIONAL REPORTS...DAKOTAS

CITY           SKY/WX    TMP DP  RH WIND       PRES   REMARKS
WILLISTON      CLOUDY    40  24  53 E15       29.97S
MINOT          CLOUDY    40  26  57 N20G25    29.92S
DICKINSON      CLOUDY    28  23  81 N13       29.87S WCI  17
BEACH          CLOUDY    32  27  80 NE14      29.93F WCI  22
TIOGA          CLOUDY    34  28  80 NE17      29.96F WCI  23
WATFORD CITY   PTSUNNY   36  25  64 NE14      29.94F WCI  27
BISMARCK       CLOUDY    33  26  75 N20G26    29.88S WCI  21
GRAND FORKS    CLOUDY    37  30  75 N26       29.84S WCI  25
FARGO          CLOUDY    38  31  76 N23G33    29.75S WCI  27
BUFFALO SD       N/A     28  26  92 N22       29.77R WCI  14
RAPID CITY     LGT SNOW  30  27  88 N17       29.80R FOG     WCI  18
$$

REGIONAL REPORTS...WYOMING/IDAHO/WASHINGTON

CITY           SKY/WX    TMP DP  RH WIND       PRES   REMARKS
GILLETTE       LGT SNOW  28  28 100 N18       29.79R WCI  15
SHERIDAN       LGT SNOW  34  30  85 N6        29.85R FOG     WCI  29
CODY           CLOUDY    38  32  79 N13       29.82S WCI  30
YELLOWSTONE LA   N/A     39  25  57 VRB5      29.79S
IDAHO FALLS    PTSUNNY   46  41  82 S14       29.81F
SALMON         CLOUDY    52  27  37 W5        29.82F
BOISE          PTSUNNY   54  35  48 NW9       29.93S
SPOKANE        PTSUNNY   53  40  61 SW18      29.88F
$$

REGIONAL REPORTS...ALBERTA

CITY           SKY/WX    TMP DP  RH WIND       PRES   REMARKS
EDMONTON       CLOUDY    36  27  69 CALM      29.94S
CALGARY        PTSUNNY   34  27  75 N12       29.87S WCI  25
LETHBRIDGE     CLOUDY    37  36  93 N7        29.84S
MEDICINE HAT   LGT RAIN  37  36  93 VRB2      29.86F
MILK RIVER       N/A     39  36  87 NW15        N/A  WCI  31
$$

REGIONAL REPORTS...SASKATCHEWAN

CITY           SKY/WX    TMP DP  RH WIND       PRES   REMARKS
SWIFT CURRENT  CLOUDY    32  25  74 SE13G18   29.95R WCI  22
REGINA         MOSUNNY   36  21  55 NE13      30.04R WCI  27
SASKATOON      PTSUNNY   36  19  51 E12G21    30.08S WCI  27
CYPRESS HILLS    N/A     28  27  93 SE8         N/A  WCI  20
VAL MARIE        N/A     34  25  69 SE13        N/A  WCI  25
ROCKGLEN         N/A     32  23  69 E7          N/A  WCI  26
ASSINIBOIA       N/A     36  30  80 SE10        N/A  WCI  28
$$




USA.gov is the U.S. government's official web portal to all federal, state and local government web resources and services.